Weather History for KLFK - December, 2012

Change the Weather History Date:

Wednesday, December 26, 2012

  Actual Average Record
Temperature  
Mean Temperature 37 °F 49 °F  
Max Temperature 44 °F 60 °F 80 °F (1924)
Min Temperature 30 °F 38 °F 16 °F (1983)
Degree Days  
Heating Degree Days 28 17  
Month to date heating degree days 223 387  
Since 1 July heating degree days 506 694  
Cooling Degree Days 0 0  
Month to date cooling degree days 47 4  
Year to date cooling degree days 3218 2587  
Moisture  
Dew Point 26 °F    
Average Humidity 66    
Maximum Humidity 82    
Minimum Humidity 49    
Precipitation  
Precipitation 0.00 in 0.13 in 2.15 in (1940)
Month to date precipitation 2.03 3.79  
Year to date precipitation 40.75 48.30  
Snow  
Snow 0.00 in - - ()
Month to date snowfall 0.0  
Since 1 July snowfall 0.0  
Snow Depth 0.00 in    
Sea Level Pressure  
Sea Level Pressure 30.16 in    
Wind  
Wind Speed 7 mph (NW)    
Max Wind Speed 17 mph    
Max Gust Speed 26 mph    
Visibility 10 miles    
Events      
T = Trace of Precipitation, MM = Missing Value Source: NWS Daily Summary

Daily Weather History Graph

Daily Weather History Graph

Search for Another Location

Airport or City:

Trip Planner

Search our weather history database for the weather conditions in past years. The results will help you decide how hot, cold, wet, or windy it might be!

Date:

Astronomy

Dec. 26, 2012 Rise Set
Actual Time 7:16 AM CST 5:23 PM CST
Civil Twilight 6:49 AM CST 5:50 PM CST
Nautical Twilight 6:19 AM CST 6:20 PM CST
Astronomical Twilight 5:49 AM CST 6:50 PM CST
Moon 4:16 PM CST (12/26) 5:42 AM CST (12/26)
Length of Visible Light 11h 01m
Length of Day
10h 07m
Waxing Gibbous, 97% of the Moon is Illuminated
Dec 26
Waxing Gibbous
Dec 28
Full
Jan 4
Last Quarter
Jan 11
New
Jan 18
First Quarter

Hourly Weather History & Observations

Time (CST) Temp. Windchill Dew Point Humidity Pressure Visibility Wind Dir Wind Speed Gust Speed Precip Events Conditions
12:53 AM 35.1 °F 25.9 °F 28.9 °F 78% 30.04 in 9.0 mi NW 13.8 mph 19.6 mph N/A   Overcast
1:53 AM 34.0 °F 23.4 °F 28.0 °F 79% 30.05 in 8.0 mi NW 17.3 mph 24.2 mph N/A   Overcast
3:33 AM 33.8 °F 27.0 °F 26.6 °F 75% 30.07 in 9.0 mi NW 8.1 mph 23.0 mph N/A   Overcast
3:53 AM 34.0 °F 25.5 °F 26.1 °F 73% 30.07 in 9.0 mi NW 11.5 mph 20.7 mph N/A   Overcast
4:53 AM 33.1 °F 24.9 °F 26.1 °F 75% 30.09 in 9.0 mi NW 10.4 mph - N/A   Overcast
5:53 AM 33.1 °F 26.9 °F 26.1 °F 75% 30.13 in 10.0 mi NW 6.9 mph - N/A   Overcast
6:38 AM 33.8 °F 26.4 °F 26.6 °F 75% 30.16 in 10.0 mi WNW 9.2 mph 20.7 mph N/A   Overcast
6:53 AM 33.1 °F 25.5 °F 25.0 °F 72% 30.17 in 10.0 mi WNW 9.2 mph - N/A   Overcast
7:27 AM 32.0 °F 26.4 °F 24.8 °F 75% 30.18 in 10.0 mi WNW 5.8 mph - N/A   Overcast
7:53 AM 32.0 °F 24.8 °F 24.1 °F 73% 30.19 in 10.0 mi WNW 8.1 mph - N/A   Overcast
8:53 AM 32.0 °F 22.5 °F 24.1 °F 73% 30.22 in 10.0 mi WNW 12.7 mph - N/A   Overcast
9:53 AM 33.1 °F 26.1 °F 24.1 °F 70% 30.24 in 10.0 mi WNW 8.1 mph 20.7 mph N/A   Overcast
10:53 AM 34.0 °F 29.8 °F 25.0 °F 70% 30.25 in 10.0 mi NNW 4.6 mph - N/A   Overcast
11:53 AM 37.0 °F 29.8 °F 26.1 °F 65% 30.23 in 10.0 mi West 10.4 mph - N/A   Mostly Cloudy
12:09 PM 37.4 °F 32.1 °F 24.8 °F 60% 30.22 in 10.0 mi NW 6.9 mph - N/A   Scattered Clouds
12:53 PM 41.0 °F 35.2 °F 25.0 °F 53% 30.19 in 10.0 mi NW 9.2 mph - N/A   Clear
1:53 PM 44.1 °F 39.0 °F 26.1 °F 49% 30.18 in 10.0 mi NW 9.2 mph - N/A   Clear
2:53 PM 42.1 °F 37.1 °F 25.0 °F 51% 30.17 in 10.0 mi WNW 8.1 mph - N/A   Clear
3:53 PM 43.0 °F 38.8 °F 25.0 °F 49% 30.17 in 10.0 mi NNW 6.9 mph - N/A   Clear
4:53 PM 41.0 °F 39.0 °F 25.0 °F 53% 30.15 in 10.0 mi North 3.5 mph - N/A   Clear
5:53 PM 39.2 °F 37.0 °F 26.6 °F 61% 30.16 in 10.0 mi NNW 3.5 mph - N/A   Clear
6:53 PM 35.6 °F 32.8 °F 26.6 °F 70% 30.16 in 10.0 mi NE 3.5 mph - N/A   Clear
7:53 PM 34.0 °F - 27.0 °F 75% 30.17 in 10.0 mi Calm Calm - N/A   Clear
8:53 PM 34.0 °F 29.8 °F 26.1 °F 73% 30.17 in 10.0 mi NE 4.6 mph - N/A   Clear
9:53 PM 32.0 °F 27.5 °F 25.0 °F 75% 30.19 in 10.0 mi NE 4.6 mph - N/A   Clear
10:53 PM 30.9 °F - 25.0 °F 79% 30.19 in 10.0 mi Calm Calm - N/A   Clear
11:53 PM 30.0 °F - 25.0 °F 82% 30.17 in 10.0 mi Calm Calm - N/A   Clear